Location: Cedar Falls
(42.5280°N, 92.4450°W)
Time: 04:37:29
(UTC-06:00)

NOSS 3-1 (C) - Visible Passes

Search period start: 18 December 2014 00:00
Search period end: 28 December 2014 00:00
Orbit: 888 x 1321 km, 63.4° (Epoch: 16 December)

Date Brightness Start Highest point End Pass type
(mag) Time Alt. Az. Time Alt. Az. Time Alt. Az.
18 Dec 4.3 17:41:36 10° NW 17:49:08 76° WSW 17:57:13 10° SSE visible
18 Dec 6.6 19:34:45 10° WNW 19:39:08 16° WSW 19:43:40 10° SW visible
19 Dec 6.1 18:48:11 10° WNW 18:54:18 27° WSW 19:00:43 10° SSW visible
20 Dec 6.7 06:53:28 10° SE 06:56:25 14° ESE 06:59:28 10° ENE visible
20 Dec 5.4 18:02:21 10° NW 18:09:20 41° WSW 18:16:46 10° S visible
21 Dec 4.7 17:16:50 10° NW 17:24:15 62° WSW 17:32:12 10° SSE visible
21 Dec 7.1 19:11:32 10° W 19:14:01 12° WSW 19:16:32 10° WSW visible
22 Dec 6.6 18:23:56 10° WNW 18:29:15 21° WSW 18:34:47 10° SSW visible
23 Dec 6.4 06:27:09 10° SSE 06:31:16 19° ESE 06:35:36 10° ENE visible
23 Dec 6.0 17:37:47 10° NW 17:44:22 32° WSW 17:51:18 10° S visible
24 Dec 7.0 05:45:58 10° ESE 05:46:36 10° ESE 05:47:15 10° E visible
25 Dec 4.9 06:45:24 10° S 06:51:02 44° ESE 06:57:08 10° NE visible
25 Dec 7.0 18:00:01 10° WNW 18:04:10 15° WSW 18:08:25 10° SW visible
26 Dec 5.7 06:01:18 10° SSE 06:06:10 26° ESE 06:11:19 10° ENE visible
26 Dec 6.6 17:13:21 10° WNW 17:19:20 25° WSW 17:25:36 10° SSW visible
27 Dec 6.4 05:18:13 10° SE 05:21:26 15° ESE 05:24:46 10° ENE visible
27 Dec 3.6 07:05:08 10° SW 07:11:11 89° NW 07:17:50 10° NE visible
